Date String (YYYY-MM-DD hh:mm:ss) UTC,Instrument flags,Ambient pressure (hPa),Sample flow (lpm),Bypass flow (lpm),Sample temperature (°C),Ambient temperature (°C),ASC tube jacket temperature (°C),LED temperature (°C),Box temperature (°C),Sample RH (%),Span deviation,Mass concentration (μg/m³),Mass concentration (μg/m³),Mass concentration (μg/m³)
DateTimeUTC,F1_M11,P_M11,Q1_M11,Q2_M11,T1_M11,T2_M11,T3_M11,T4_M11,T5_M11,U1_M11,ZSPAN_M11,X0_M11,X2_M11,X1_M11
2022-10-21 08:00:00,,0821.8,4.98,0.00,30.2,28.7,00.0,39.1,32.0,07.4,0000.0,0003.88,0001.63,0001.16
2022-10-21 08:01:00,,0821.8,5.02,0.00,30.2,28.7,00.0,39.1,32.0,07.3,0000.0,0003.82,0001.67,0001.17
2022-10-21 08:02:00,,0821.8,4.99,0.00,30.2,28.7,00.0,39.1,32.0,07.3,0000.0,0003.43,0001.67,0001.16
2022-10-21 08:03:00,,0821.9,5.00,0.00,30.2,28.7,00.0,39.1,32.0,07.3,0000.0,0003.42,0001.67,0001.16
2022-10-21 08:04:00,,0821.8,5.00,0.00,30.2,28.7,00.0,39.1,32.0,07.3,0000.0,0003.68,0001.70,0001.16
2022-10-21 08:05:00,,0821.8,5.00,0.00,30.2,28.7,00.0,39.1,32.0,07.3,0000.0,0004.08,0001.73,0001.16
2022-10-21 08:06:00,,0821.8,5.00,0.00,30.2,28.7,00.0,39.1,32.1,07.3,0000.0,0005.20,0001.75,0001.15
2022-10-21 08:07:00,,0821.8,4.99,0.00,30.2,28.7,00.0,39.1,32.1,07.3,0000.0,0006.86,0001.77,0001.16
2022-10-21 08:08:00,,0821.8,4.99,0.00,30.2,28.7,00.0,39.1,32.0,07.4,0000.0,0006.30,0001.73,0001.17
2022-10-21 08:09:00,,0821.8,5.01,0.00,30.3,28.7,00.0,39.1,32.0,07.3,0000.0,0006.18,0001.71,0001.17
2022-10-21 08:10:00,,0821.8,5.00,0.00,30.3,28.7,00.0,39.1,32.0,07.3,0000.0,0006.06,0001.68,0001.16
2022-10-21 08:11:00,,0821.8,5.00,0.00,30.2,28.7,00.0,39.1,32.0,07.3,0000.0,0006.15,0001.69,0001.17
2022-10-21 08:12:00,,0821.7,4.99,0.00,30.3,28.7,00.0,39.1,32.0,07.3,0000.0,0006.26,0001.70,0001.17
2022-10-21 08:13:00,,0821.7,5.00,0.00,30.3,28.7,00.0,39.1,32.0,07.4,0000.0,0006.41,0001.72,0001.18
2022-10-21 08:14:00,,0821.7,5.01,0.00,30.3,28.7,00.0,39.1,32.0,07.5,0000.0,0006.54,0001.75,0001.19
2022-10-21 08:15:00,,0821.7,5.00,0.00,30.2,28.7,00.0,39.1,32.0,07.4,0000.0,0006.54,0001.75,0001.20
2022-10-21 08:16:00,,0821.7,5.00,0.00,30.2,28.7,00.0,39.1,32.0,07.4,0000.0,0007.22,0001.73,0001.21
2022-10-21 08:17:00,,0821.7,5.00,0.00,30.2,28.7,00.0,39.1,32.0,07.4,0000.0,0006.85,0001.73,0001.22
2022-10-21 08:18:00,,0821.7,5.00,0.00,30.2,28.7,00.0,39.1,32.0,07.4,0000.0,0005.77,0001.74,0001.23
2022-10-21 08:19:00,,0821.7,5.00,0.00,30.3,28.7,00.0,39.1,32.0,07.4,0000.0,0006.40,0001.76,0001.23
2022-10-21 08:20:00,,0821.7,5.00,0.00,30.3,28.7,00.0,39.1,32.0,07.4,0000.0,0006.45,0001.80,0001.24
2022-10-21 08:21:00,,0821.7,5.01,0.00,30.3,28.7,00.0,39.1,32.1,07.4,0000.0,0006.54,0001.83,0001.24
2022-10-21 08:22:00,,0821.7,5.01,0.00,30.3,28.7,00.0,39.1,32.0,07.4,0000.0,0006.57,0001.81,0001.25
2022-10-21 08:23:00,,0821.7,4.99,0.00,30.3,28.7,00.0,39.1,32.0,07.3,0000.0,0006.75,0001.80,0001.25
2022-10-21 08:24:00,,0821.7,4.99,0.00,30.3,28.7,00.0,39.1,32.0,07.2,0000.0,0006.65,0001.78,0001.25
2022-10-21 08:25:00,,0821.6,5.00,0.00,30.3,28.7,00.0,39.1,32.1,07.2,0000.0,0006.70,0001.77,0001.24
2022-10-21 08:26:00,,0821.7,5.02,0.00,30.3,28.8,00.0,39.1,32.1,07.2,0000.0,0006.62,0001.73,0001.24
2022-10-21 08:27:00,,0821.6,5.00,0.00,30.3,28.8,00.0,39.1,32.1,07.2,0000.0,0005.71,0001.75,0001.25
2022-10-21 08:28:00,,0821.7,4.98,0.00,30.3,28.8,00.0,39.1,32.1,07.2,0000.0,0005.29,0001.74,0001.25
2022-10-21 08:29:00,,0821.6,5.02,0.00,30.3,28.8,00.0,39.1,32.0,07.2,0000.0,0006.12,0001.75,0001.24
2022-10-21 08:30:00,,0821.7,5.00,0.00,30.3,28.7,00.0,39.1,32.0,07.1,0000.0,0005.73,0001.77,0001.24
2022-10-21 08:31:00,,0821.7,4.99,0.00,30.3,28.7,00.0,39.1,32.1,07.0,0000.0,0005.73,0001.76,0001.24
2022-10-21 08:32:00,,0821.6,4.99,0.00,30.3,28.7,00.0,39.1,32.1,07.1,0000.0,0005.76,0001.77,0001.23
2022-10-21 08:33:00,,0821.6,5.00,0.00,30.3,28.7,00.0,39.2,32.1,07.1,0000.0,0005.69,0001.81,0001.22
2022-10-21 08:34:00,,0821.6,5.00,0.00,30.3,28.7,00.0,39.2,32.0,07.0,0000.0,0005.40,0001.79,0001.23
2022-10-21 08:35:00,,0821.5,5.00,0.00,30.3,28.7,00.0,39.2,32.0,07.1,0000.0,0005.59,0001.85,0001.23
2022-10-21 08:36:00,,0821.6,5.00,0.00,30.3,28.7,00.0,39.2,32.1,07.2,0000.0,0005.43,0001.85,0001.24
2022-10-21 08:37:00,,0821.6,5.00,0.00,30.3,28.7,00.0,39.1,32.1,07.2,0000.0,0005.29,0001.86,0001.25
2022-10-21 08:38:00,,0821.6,5.00,0.00,30.3,28.8,00.0,39.2,32.1,07.2,0000.0,0005.30,0001.88,0001.28
2022-10-21 08:39:00,,0821.6,5.00,0.00,30.3,28.8,00.0,39.2,32.1,07.2,0000.0,0004.83,0001.92,0001.29
2022-10-21 08:40:00,,0821.6,4.99,0.00,30.3,28.7,00.0,39.2,32.1,07.2,0000.0,0003.61,0001.90,0001.30
2022-10-21 08:41:00,,0821.5,5.01,0.00,30.3,28.8,00.0,39.2,32.1,07.2,0000.0,0003.31,0001.89,0001.31
2022-10-21 08:42:00,,0821.6,5.00,0.00,30.3,28.8,00.0,39.2,32.1,07.1,0000.0,0003.55,0001.92,0001.32
2022-10-21 08:43:00,,0821.6,4.99,0.00,30.3,28.8,00.0,39.2,32.1,07.1,0000.0,0003.60,0001.92,0001.33
2022-10-21 08:44:00,,0821.6,5.02,0.00,30.3,28.8,00.0,39.2,32.1,07.1,0000.0,0004.14,0001.89,0001.33
2022-10-21 08:45:00,,0821.6,4.99,0.00,30.3,28.8,00.0,39.2,32.1,07.1,0000.0,0004.18,0001.93,0001.34
2022-10-21 08:46:00,,0821.6,4.99,0.00,30.3,28.8,00.0,39.2,32.1,07.1,0000.0,0003.99,0001.90,0001.34
2022-10-21 08:47:00,,0821.6,5.01,0.00,30.3,28.8,00.0,39.2,32.1,07.1,0000.0,0004.18,0001.92,0001.35
2022-10-21 08:48:00,,0821.6,4.99,0.00,30.3,28.8,00.0,39.2,32.1,07.1,0000.0,0005.62,0001.96,0001.34
2022-10-21 08:49:00,,0821.5,4.99,0.00,30.3,28.8,00.0,39.2,32.1,07.1,0000.0,0006.44,0001.94,0001.32
2022-10-21 08:50:00,,0821.4,5.01,0.00,30.3,28.8,00.0,39.2,32.1,07.1,0000.0,0006.59,0001.92,0001.31
2022-10-21 08:51:00,,0821.5,5.00,0.00,30.3,28.8,00.0,39.2,32.1,07.2,0000.0,0007.52,0001.91,0001.29
2022-10-21 08:52:00,,0821.5,4.99,0.00,30.3,28.9,00.0,39.2,32.2,07.2,0000.0,0007.49,0001.87,0001.28
2022-10-21 08:53:00,,0821.5,5.02,0.00,30.3,28.9,00.0,39.2,32.2,07.1,0000.0,0007.36,0001.82,0001.28
2022-10-21 08:54:00,,0821.6,4.99,0.00,30.3,28.9,00.0,39.2,32.2,07.1,0000.0,0007.46,0001.85,0001.29
2022-10-21 08:55:00,,0821.6,4.99,0.00,30.3,28.9,00.0,39.2,32.1,07.1,0000.0,0007.02,0001.89,0001.30
2022-10-21 08:56:00,,0821.5,5.01,0.00,30.4,28.9,00.0,39.2,32.1,07.1,0000.0,0007.27,0001.94,0001.30
2022-10-21 08:57:00,,0821.5,5.00,0.00,30.4,28.9,00.0,39.2,32.1,07.2,0000.0,0007.47,0001.94,0001.30
2022-10-21 08:58:00,,0821.5,4.99,0.00,30.4,28.9,00.0,39.2,32.2,07.3,0000.0,0007.53,0001.92,0001.29
2022-10-21 08:59:00,,0821.5,5.00,0.00,30.4,28.9,00.0,39.2,32.2,07.5,0000.0,0006.39,0001.89,0001.29
